DAL381 KDTW-KLAX

Flight info

Callsign DAL381
Flight time N/A
Altitude 40000
Route KAYLN3 SMUUV OBK DSM LNK J60 DVV ZAKRY Q88 HAKMN ANJLL4
Aircraft A359/H-SDE2E3GHIJ3J4J5LM1ORWXY/LB1D1

Departure

Time 2026-05-07 21:17
Airport Detroit Metropolitan Wayne County Airport (KDTW)

Arrival

Time N/A
Airport Los Angeles International Airport (KLAX)
Time Latitude Longitude Altitude Speed Heading
2026-05-07 20:53 42.20990 -83.35771 653 ft 0 kts 118°
2026-05-07 21:05 42.20994 -83.35783 662 ft 2 kts 114°
2026-05-07 21:06 42.21000 -83.35804 653 ft 2 kts 107°
2026-05-07 21:06 42.21004 -83.35825 655 ft 2 kts 94°
2026-05-07 21:06 42.21003 -83.35847 656 ft 2 kts 76°
2026-05-07 21:06 42.20997 -83.35867 657 ft 2 kts 52°
2026-05-07 21:07 42.20986 -83.35882 657 ft 2 kts 36°
2026-05-07 21:07 42.20979 -83.35888 655 ft 0 kts 30°
2026-05-07 21:09 42.20988 -83.35882 653 ft 11 kts 29°
2026-05-07 21:09 42.21055 -83.35831 654 ft 5 kts 28°
2026-05-07 21:09 42.21098 -83.35801 652 ft 23 kts 28°
2026-05-07 21:09 42.21240 -83.35699 652 ft 23 kts 27°
2026-05-07 21:10 42.21354 -83.35609 652 ft 10 kts 26°
2026-05-07 21:10 42.21362 -83.35603 652 ft 1 kts 25°
2026-05-07 21:10 42.21485 -83.35519 652 ft 24 kts 27°
2026-05-07 21:10 42.21549 -83.35327 652 ft 24 kts 88°
2026-05-07 21:11 42.21563 -83.35106 652 ft 22 kts 67°
2026-05-07 21:11 42.21660 -83.34950 652 ft 23 kts 45°
2026-05-07 21:11 42.21834 -83.34686 653 ft 16 kts 79°
2026-05-07 21:12 42.21840 -83.34549 654 ft 15 kts 71°
2026-05-07 21:12 42.21921 -83.34453 654 ft 17 kts 30°
2026-05-07 21:12 42.22035 -83.34368 654 ft 20 kts 29°
2026-05-07 21:12 42.22162 -83.34275 652 ft 22 kts 28°
2026-05-07 21:13 42.22297 -83.34175 652 ft 23 kts 28°
2026-05-07 21:13 42.22443 -83.34068 653 ft 25 kts 29°
2026-05-07 21:13 42.22599 -83.33952 652 ft 26 kts 29°
2026-05-07 21:13 42.22711 -83.33871 652 ft 16 kts 28°
2026-05-07 21:14 42.22809 -83.33801 652 ft 17 kts 27°
2026-05-07 21:14 42.22848 -83.33759 651 ft 1 kts 63°
2026-05-07 21:14 42.22850 -83.33752 651 ft 7 kts 66°
2026-05-07 21:14 42.22827 -83.33647 651 ft 9 kts 133°
2026-05-07 21:15 42.22761 -83.33667 652 ft 10 kts 207°
2026-05-07 21:15 42.22758 -83.33669 652 ft 0 kts 207°
2026-05-07 21:16 42.22751 -83.33674 654 ft 11 kts 207°
2026-05-07 21:16 42.22409 -83.33926 655 ft 102 kts 209°
2026-05-07 21:17 42.21541 -83.34556 731 ft 174 kts 206°
2026-05-07 21:17 42.20381 -83.35306 1583 ft 187 kts 211°
2026-05-07 21:17 42.19269 -83.36161 2816 ft 184 kts 224°
2026-05-07 21:17 42.18693 -83.37005 3290 ft 183 kts 238°
2026-05-07 21:18 42.17754 -83.39079 3769 ft 211 kts 244°
2026-05-07 21:18 42.16941 -83.40842 4175 ft 231 kts 241°
2026-05-07 21:18 42.16007 -83.42673 4779 ft 241 kts 239°
2026-05-07 21:18 42.15172 -83.44630 5484 ft 241 kts 251°
2026-05-07 21:19 42.14819 -83.46810 6246 ft 240 kts 270°
2026-05-07 21:19 42.15124 -83.48997 7039 ft 239 kts 289°
2026-05-07 21:19 42.15763 -83.51070 7836 ft 241 kts 292°
2026-05-07 21:19 42.16460 -83.53132 8620 ft 243 kts 293°
2026-05-07 21:20 42.17170 -83.55212 9414 ft 245 kts 293°
2026-05-07 21:20 42.17878 -83.57294 10201 ft 247 kts 292°
2026-05-07 21:20 42.18356 -83.58707 10491 ft 257 kts 292°
2026-05-07 21:20 42.19118 -83.60968 10841 ft 274 kts 292°
2026-05-07 21:21 42.19920 -83.63345 11210 ft 288 kts 293°
2026-05-07 21:21 42.20762 -83.65832 11792 ft 294 kts 293°
2026-05-07 21:21 42.21619 -83.68345 12469 ft 298 kts 293°
2026-05-07 21:21 42.22487 -83.70898 13153 ft 301 kts 293°
2026-05-07 21:22 42.23358 -83.73479 13840 ft 304 kts 293°
2026-05-07 21:22 42.24237 -83.76091 14483 ft 305 kts 293°
2026-05-07 21:22 42.25115 -83.78706 15152 ft 307 kts 293°
2026-05-07 21:22 42.25999 -83.81343 15778 ft 309 kts 292°
2026-05-07 21:23 42.26886 -83.83994 16420 ft 311 kts 292°
2026-05-07 21:23 42.27767 -83.86633 17044 ft 314 kts 292°
2026-05-07 21:23 42.28665 -83.89324 17639 ft 316 kts 292°
2026-05-07 21:23 42.29566 -83.92026 18244 ft 318 kts 292°
2026-05-07 21:24 42.30478 -83.94764 18747 ft 321 kts 292°
2026-05-07 21:24 42.31398 -83.97530 19260 ft 324 kts 292°
2026-05-07 21:24 42.32325 -84.00321 19738 ft 327 kts 292°
2026-05-07 21:24 42.33262 -84.03143 20243 ft 330 kts 292°
2026-05-07 21:25 42.34206 -84.05988 20731 ft 333 kts 292°
2026-05-07 21:25 42.35154 -84.08851 21227 ft 335 kts 292°
2026-05-07 21:25 42.36110 -84.11738 21710 ft 338 kts 292°
2026-05-07 21:25 42.37075 -84.14656 22185 ft 341 kts 292°
2026-05-07 21:26 42.38047 -84.17602 22672 ft 344 kts 292°
2026-05-07 21:26 42.39027 -84.20573 23149 ft 347 kts 292°
2026-05-07 21:26 42.40015 -84.23570 23598 ft 350 kts 292°
2026-05-07 21:26 42.41007 -84.26583 23999 ft 352 kts 292°
2026-05-07 21:27 42.41998 -84.29624 24417 ft 353 kts 291°
2026-05-07 21:27 42.42799 -84.32756 24802 ft 353 kts 284°
2026-05-07 21:27 42.43198 -84.35997 25187 ft 355 kts 276°
2026-05-07 21:27 42.43335 -84.39340 25588 ft 356 kts 273°
2026-05-07 21:28 42.43412 -84.42693 26002 ft 358 kts 272°
2026-05-07 21:28 42.43486 -84.46067 26431 ft 359 kts 272°
2026-05-07 21:28 42.43565 -84.49447 26852 ft 360 kts 272°
2026-05-07 21:28 42.43647 -84.52853 27271 ft 362 kts 272°
2026-05-07 21:29 42.43732 -84.56272 27698 ft 364 kts 272°
2026-05-07 21:29 42.43817 -84.59703 28126 ft 366 kts 272°
2026-05-07 21:29 42.43903 -84.63166 28555 ft 368 kts 272°
2026-05-07 21:29 42.43991 -84.66633 28977 ft 370 kts 272°
2026-05-07 21:30 42.44075 -84.70128 29409 ft 372 kts 272°
2026-05-07 21:30 42.44158 -84.73636 29832 ft 374 kts 272°
2026-05-07 21:30 42.44241 -84.77164 30197 ft 376 kts 272°
2026-05-07 21:30 42.44324 -84.80714 30497 ft 379 kts 272°
2026-05-07 21:31 42.44406 -84.84297 30793 ft 382 kts 272°
2026-05-07 21:31 42.44488 -84.87870 31100 ft 385 kts 272°
2026-05-07 21:31 42.44570 -84.91510 31402 ft 388 kts 272°
2026-05-07 21:31 42.44651 -84.95180 31706 ft 391 kts 272°
2026-05-07 21:32 42.44736 -84.98872 31986 ft 394 kts 272°
2026-05-07 21:32 42.44816 -85.02594 32274 ft 397 kts 272°
2026-05-07 21:32 42.44894 -85.06349 32564 ft 399 kts 272°
2026-05-07 21:32 42.44971 -85.10115 32836 ft 402 kts 272°
2026-05-07 21:33 42.45048 -85.13915 33103 ft 404 kts 272°
2026-05-07 21:33 42.45125 -85.17732 33364 ft 407 kts 272°
2026-05-07 21:33 42.45200 -85.21527 33611 ft 409 kts 272°
2026-05-07 21:33 42.45276 -85.25440 33859 ft 412 kts 272°
2026-05-07 21:34 42.45350 -85.29275 34072 ft 414 kts 272°
2026-05-07 21:34 42.45423 -85.33183 34263 ft 416 kts 272°
2026-05-07 21:34 42.45496 -85.37109 34454 ft 418 kts 272°
2026-05-07 21:34 42.45568 -85.41049 34680 ft 419 kts 272°
2026-05-07 21:35 42.45638 -85.45001 34965 ft 419 kts 272°
2026-05-07 21:35 42.45707 -85.48944 35256 ft 418 kts 272°
2026-05-07 21:35 42.45771 -85.52667 35513 ft 418 kts 272°
2026-05-07 21:35 42.45840 -85.56755 35798 ft 418 kts 272°
2026-05-07 21:36 42.45905 -85.60693 36065 ft 418 kts 272°
2026-05-07 21:36 42.45969 -85.64640 36325 ft 419 kts 272°
2026-05-07 21:36 42.46031 -85.68596 36589 ft 419 kts 272°
2026-05-07 21:36 42.46091 -85.72492 36851 ft 419 kts 272°
2026-05-07 21:37 42.46150 -85.76422 37112 ft 419 kts 272°
2026-05-07 21:37 42.46208 -85.80388 37391 ft 419 kts 272°
2026-05-07 21:37 42.46265 -85.84325 37652 ft 419 kts 272°
2026-05-07 21:37 42.46321 -85.88274 37898 ft 419 kts 272°
2026-05-07 21:38 42.46375 -85.92225 38153 ft 419 kts 272°
2026-05-07 21:38 42.46428 -85.96168 38403 ft 419 kts 272°
2026-05-07 21:38 42.46479 -86.00099 38631 ft 419 kts 272°
2026-05-07 21:38 42.46529 -86.04039 38808 ft 419 kts 271°
2026-05-07 21:39 42.46578 -86.07935 38979 ft 420 kts 271°
2026-05-07 21:39 42.46561 -86.11897 39136 ft 420 kts 268°
2026-05-07 21:39 42.46267 -86.15833 39287 ft 422 kts 264°
2026-05-07 21:39 42.45832 -86.19764 39470 ft 422 kts 263°
2026-05-07 21:40 42.45336 -86.23699 39622 ft 423 kts 262°
2026-05-07 21:40 42.44816 -86.27617 39778 ft 423 kts 262°
2026-05-07 21:40 42.44301 -86.31458 39895 ft 424 kts 262°
2026-05-07 21:40 42.43776 -86.35405 39938 ft 428 kts 262°
2026-05-07 21:41 42.42736 -86.43364 39942 ft 429 kts 262°
2026-05-07 21:41 42.41705 -86.51328 39947 ft 429 kts 262°
2026-05-07 21:42 42.40675 -86.59277 39952 ft 429 kts 262°
2026-05-07 21:42 42.39642 -86.67208 39954 ft 428 kts 262°
2026-05-07 21:43 42.38609 -86.75090 39954 ft 434 kts 262°
2026-05-07 21:43 42.37535 -86.83238 39952 ft 439 kts 262°
2026-05-07 21:44 42.36455 -86.91365 39945 ft 439 kts 262°
2026-05-07 21:44 42.35369 -86.99494 39942 ft 439 kts 262°
2026-05-07 21:45 42.34280 -87.07605 39945 ft 438 kts 262°
2026-05-07 21:45 42.33184 -87.15726 39946 ft 439 kts 262°
2026-05-07 21:46 42.32088 -87.23803 39942 ft 439 kts 262°
2026-05-07 21:46 42.30981 -87.31917 39951 ft 439 kts 262°
2026-05-07 21:47 42.29866 -87.40036 39955 ft 439 kts 262°
2026-05-07 21:47 42.28747 -87.48152 39934 ft 440 kts 262°
2026-05-07 21:48 42.27620 -87.56275 39931 ft 440 kts 262°
2026-05-07 21:48 42.26486 -87.64399 39915 ft 440 kts 262°
2026-05-07 21:49 42.25347 -87.72525 39944 ft 441 kts 262°
2026-05-07 21:49 42.24203 -87.80636 39942 ft 441 kts 262°
2026-05-07 21:50 42.23053 -87.88748 39941 ft 441 kts 262°
2026-05-07 21:50 42.21913 -87.96779 39943 ft 441 kts 262°
2026-05-07 21:51 42.20933 -88.04899 39940 ft 440 kts 263°
2026-05-07 21:51 42.20048 -88.13059 39940 ft 440 kts 264°
2026-05-07 21:52 42.19153 -88.21220 39938 ft 440 kts 263°
2026-05-07 21:52 42.18241 -88.29368 39926 ft 439 kts 263°
2026-05-07 21:53 42.17324 -88.37514 39926 ft 439 kts 264°
2026-05-07 21:53 42.16399 -88.45644 39925 ft 439 kts 263°
2026-05-07 21:54 42.15464 -88.53728 39929 ft 439 kts 263°
2026-05-07 21:54 42.14513 -88.61850 39923 ft 438 kts 263°
2026-05-07 21:55 42.13556 -88.69964 39923 ft 438 kts 263°
2026-05-07 21:55 42.12595 -88.78067 39921 ft 438 kts 263°
2026-05-07 21:56 42.11637 -88.86103 39930 ft 437 kts 263°
2026-05-07 21:56 42.10666 -88.94194 39930 ft 437 kts 263°
2026-05-07 21:57 42.09689 -89.02279 39930 ft 437 kts 263°
2026-05-07 21:57 42.08707 -89.10362 39926 ft 437 kts 263°
2026-05-07 21:58 42.07720 -89.18435 39930 ft 437 kts 263°
2026-05-07 21:58 42.06727 -89.26514 39909 ft 437 kts 263°
2026-05-07 21:59 42.05729 -89.34582 39909 ft 437 kts 263°
2026-05-07 21:59 42.04730 -89.42613 39908 ft 437 kts 263°
2026-05-07 22:00 42.03720 -89.50680 39905 ft 437 kts 263°
2026-05-07 22:00 42.02704 -89.58748 39907 ft 437 kts 263°
2026-05-07 22:01 42.01682 -89.66815 39903 ft 437 kts 263°
2026-05-07 22:01 42.00662 -89.74819 39900 ft 437 kts 263°
2026-05-07 22:02 41.99631 -89.82869 39901 ft 437 kts 263°
2026-05-07 22:02 41.98593 -89.90921 39896 ft 437 kts 263°
2026-05-07 22:03 41.97549 -89.98975 39893 ft 437 kts 263°
2026-05-07 22:03 41.96499 -90.07025 39891 ft 437 kts 263°
2026-05-07 22:04 41.95445 -90.15065 39900 ft 437 kts 263°
2026-05-07 22:04 41.94386 -90.23110 39894 ft 437 kts 263°
2026-05-07 22:05 41.93331 -90.31151 39904 ft 437 kts 263°
2026-05-07 22:05 41.92262 -90.39126 39908 ft 437 kts 263°
2026-05-07 22:06 41.91179 -90.47156 39907 ft 437 kts 263°
2026-05-07 22:06 41.90095 -90.55191 39907 ft 437 kts 263°
2026-05-07 22:07 41.89009 -90.63207 39907 ft 436 kts 262°
2026-05-07 22:07 41.87917 -90.71221 39906 ft 436 kts 262°
2026-05-07 22:08 41.86821 -90.79219 39909 ft 436 kts 262°
2026-05-07 22:08 41.85721 -90.87204 39913 ft 435 kts 262°
2026-05-07 22:09 41.84616 -90.95181 39922 ft 435 kts 262°
2026-05-07 22:09 41.83505 -91.03160 39918 ft 435 kts 262°
2026-05-07 22:10 41.82396 -91.11084 39913 ft 435 kts 262°
2026-05-07 22:10 41.81273 -91.19062 39924 ft 435 kts 262°
2026-05-07 22:11 41.80146 -91.27025 39920 ft 435 kts 262°
2026-05-07 22:11 41.79206 -91.33636 39923 ft 435 kts 262°
2026-05-07 22:12 41.78069 -91.41599 39921 ft 435 kts 262°
2026-05-07 22:12 41.76927 -91.49552 39912 ft 434 kts 262°
2026-05-07 22:13 41.75780 -91.57499 39917 ft 434 kts 262°
2026-05-07 22:13 41.74628 -91.65443 39919 ft 434 kts 262°
2026-05-07 22:14 41.73470 -91.73384 39894 ft 434 kts 261°
2026-05-07 22:14 41.72316 -91.81263 39896 ft 434 kts 261°
2026-05-07 22:15 41.71148 -91.89197 39900 ft 434 kts 261°
2026-05-07 22:15 41.69974 -91.97127 39905 ft 434 kts 261°
2026-05-07 22:16 41.68795 -92.05052 39909 ft 434 kts 261°
2026-05-07 22:16 41.67611 -92.12968 39911 ft 434 kts 261°
2026-05-07 22:17 41.66421 -92.20892 39910 ft 434 kts 261°
2026-05-07 22:17 41.65226 -92.28807 39911 ft 434 kts 261°
2026-05-07 22:18 41.63425 -92.40665 39904 ft 434 kts 261°
2026-05-07 22:19 41.62223 -92.48528 39911 ft 434 kts 261°
2026-05-07 22:19 41.61008 -92.56442 39909 ft 434 kts 261°
2026-05-07 22:20 41.59788 -92.64345 39916 ft 434 kts 261°
2026-05-07 22:20 41.58563 -92.72242 39915 ft 434 kts 260°
2026-05-07 22:21 41.57340 -92.80094 39914 ft 434 kts 260°
2026-05-07 22:21 41.56105 -92.87984 39889 ft 434 kts 260°
2026-05-07 22:22 41.54865 -92.95870 39890 ft 434 kts 260°
2026-05-07 22:22 41.53620 -93.03752 39893 ft 434 kts 260°
2026-05-07 22:23 41.52367 -93.11641 39894 ft 434 kts 260°
2026-05-07 22:23 41.51110 -93.19517 39889 ft 434 kts 260°
2026-05-07 22:24 41.49848 -93.27395 39888 ft 434 kts 260°
2026-05-07 22:24 41.48581 -93.35267 39888 ft 434 kts 260°
2026-05-07 22:25 41.47306 -93.43147 39882 ft 434 kts 259°
2026-05-07 22:25 41.46035 -93.50967 39880 ft 434 kts 259°
2026-05-07 22:26 41.44751 -93.58832 39875 ft 434 kts 259°
2026-05-07 22:26 41.43461 -93.66713 39878 ft 434 kts 259°
2026-05-07 22:27 41.42244 -93.74607 39880 ft 434 kts 260°
2026-05-07 22:27 41.41062 -93.82496 39879 ft 434 kts 260°
2026-05-07 22:28 41.39865 -93.90383 39880 ft 434 kts 260°
2026-05-07 22:28 41.38662 -93.98204 39882 ft 434 kts 260°
2026-05-07 22:29 41.37442 -94.06074 39875 ft 434 kts 260°
2026-05-07 22:29 41.36216 -94.13940 39871 ft 434 kts 260°
2026-05-07 22:30 41.34985 -94.21805 39875 ft 434 kts 260°
2026-05-07 22:30 41.33749 -94.29669 39872 ft 434 kts 259°
2026-05-07 22:31 41.32507 -94.37533 39870 ft 434 kts 259°
2026-05-07 22:31 41.31258 -94.45402 39871 ft 434 kts 259°
2026-05-07 22:32 41.30012 -94.53216 39869 ft 435 kts 259°
2026-05-07 22:32 41.28751 -94.61092 39867 ft 435 kts 259°
2026-05-07 22:33 41.27486 -94.68953 39867 ft 435 kts 259°
2026-05-07 22:33 41.26214 -94.76818 39861 ft 435 kts 259°
2026-05-07 22:34 41.24938 -94.84678 39854 ft 435 kts 259°
2026-05-07 22:34 41.23654 -94.92553 39854 ft 435 kts 259°
2026-05-07 22:35 41.22373 -95.00364 39850 ft 435 kts 259°
2026-05-07 22:35 41.21078 -95.08230 39853 ft 436 kts 259°
2026-05-07 22:36 41.19778 -95.16094 39852 ft 436 kts 259°
2026-05-07 22:36 41.18472 -95.23956 39851 ft 436 kts 259°
2026-05-07 22:37 41.17159 -95.31828 39848 ft 436 kts 258°
2026-05-07 22:37 41.15840 -95.39700 39848 ft 437 kts 258°
2026-05-07 22:38 41.14515 -95.47570 39852 ft 437 kts 258°
2026-05-07 22:38 41.13183 -95.55444 39857 ft 437 kts 258°
2026-05-07 22:39 41.11854 -95.63265 39858 ft 438 kts 258°
2026-05-07 22:39 41.10511 -95.71138 39855 ft 438 kts 258°
2026-05-07 22:40 41.09161 -95.79017 39850 ft 438 kts 258°
2026-05-07 22:40 41.07805 -95.86892 39850 ft 438 kts 258°
2026-05-07 22:41 41.06444 -95.94769 39851 ft 439 kts 258°
2026-05-07 22:41 41.05074 -96.02657 39850 ft 439 kts 258°
2026-05-07 22:42 41.03700 -96.10539 39866 ft 439 kts 258°
2026-05-07 22:42 41.02320 -96.18417 39868 ft 439 kts 258°
2026-05-07 22:43 41.00934 -96.26301 39865 ft 439 kts 258°
2026-05-07 22:43 40.99542 -96.34179 39868 ft 440 kts 258°
2026-05-07 22:44 40.98153 -96.42009 39867 ft 440 kts 258°
2026-05-07 22:44 40.96740 -96.49944 39873 ft 440 kts 258°
2026-05-07 22:45 40.95339 -96.57773 39876 ft 440 kts 258°
2026-05-07 22:45 40.93924 -96.65654 39877 ft 441 kts 257°
2026-05-07 22:46 40.92546 -96.73567 39876 ft 441 kts 260°
2026-05-07 22:46 40.91664 -96.81581 39880 ft 441 kts 263°
2026-05-07 22:47 40.90901 -96.89630 39879 ft 441 kts 263°
2026-05-07 22:47 40.90153 -96.97673 39878 ft 441 kts 263°
2026-05-07 22:48 40.89393 -97.05675 39876 ft 442 kts 263°
2026-05-07 22:48 40.88615 -97.13738 39879 ft 442 kts 263°
2026-05-07 22:49 40.87830 -97.21797 39880 ft 442 kts 263°
2026-05-07 22:49 40.87038 -97.29863 39878 ft 443 kts 263°
2026-05-07 22:50 40.86240 -97.37926 39881 ft 443 kts 263°
2026-05-07 22:50 40.85436 -97.46004 39880 ft 443 kts 263°
2026-05-07 22:51 40.84625 -97.54092 39877 ft 444 kts 263°
2026-05-07 22:51 40.83808 -97.62177 39877 ft 444 kts 262°
2026-05-07 22:52 40.82991 -97.70207 39878 ft 445 kts 262°
2026-05-07 22:52 40.82161 -97.78303 39880 ft 445 kts 262°
2026-05-07 22:53 40.81325 -97.86409 39880 ft 445 kts 262°
2026-05-07 22:53 40.80482 -97.94516 39879 ft 446 kts 262°
2026-05-07 22:54 40.79634 -98.02625 39877 ft 446 kts 262°
2026-05-07 22:54 40.78779 -98.10733 39877 ft 446 kts 262°
2026-05-07 22:55 40.77918 -98.18848 39879 ft 447 kts 262°
2026-05-07 22:55 40.77055 -98.26929 39886 ft 447 kts 262°
2026-05-07 22:56 40.76181 -98.35059 39883 ft 447 kts 262°
2026-05-07 22:56 40.75297 -98.43204 39879 ft 448 kts 262°
2026-05-07 22:57 40.74411 -98.51333 39880 ft 448 kts 262°
2026-05-07 22:57 40.73518 -98.59469 39881 ft 449 kts 262°
2026-05-07 22:58 40.72616 -98.67624 39880 ft 449 kts 262°
2026-05-07 22:58 40.71716 -98.75719 39885 ft 449 kts 262°
2026-05-07 22:59 40.70801 -98.83882 39885 ft 450 kts 262°
2026-05-07 22:59 40.69881 -98.92040 39886 ft 450 kts 262°
2026-05-07 23:00 40.68956 -99.00200 39888 ft 451 kts 262°
2026-05-07 23:00 40.68180 -99.06992 39888 ft 451 kts 262°
2026-05-07 23:01 40.67242 -99.15162 39886 ft 451 kts 262°
2026-05-07 23:01 40.66298 -99.23333 39882 ft 452 kts 262°
2026-05-07 23:02 40.65346 -99.31514 39876 ft 452 kts 262°
2026-05-07 23:02 40.64388 -99.39699 39875 ft 453 kts 262°
2026-05-07 23:03 40.63421 -99.47917 39876 ft 455 kts 262°
2026-05-07 23:03 40.62444 -99.56155 39879 ft 456 kts 262°
2026-05-07 23:04 40.61461 -99.64399 39879 ft 456 kts 262°
2026-05-07 23:04 40.60469 -99.72658 39880 ft 456 kts 262°
2026-05-07 23:05 40.59465 -99.80917 39882 ft 457 kts 261°
2026-05-07 23:05 40.58452 -99.89111 39880 ft 457 kts 261°
2026-05-07 23:06 40.57435 -99.97362 39872 ft 457 kts 261°
2026-05-07 23:06 40.56416 -100.05627 39869 ft 458 kts 261°
2026-05-07 23:07 40.55394 -100.13895 39871 ft 458 kts 261°
2026-05-07 23:07 40.54366 -100.22153 39870 ft 458 kts 261°
2026-05-07 23:08 40.53332 -100.30431 39868 ft 458 kts 261°
2026-05-07 23:08 40.52298 -100.38707 39870 ft 458 kts 262°
2026-05-07 23:09 40.51264 -100.46976 39873 ft 459 kts 262°
2026-05-07 23:09 40.50223 -100.55198 39879 ft 459 kts 262°
2026-05-07 23:10 40.49163 -100.63469 39884 ft 459 kts 262°
2026-05-07 23:10 40.48093 -100.71751 39882 ft 460 kts 262°
2026-05-07 23:11 40.47018 -100.80034 39884 ft 460 kts 262°
2026-05-07 23:11 40.45936 -100.88325 39888 ft 460 kts 262°
2026-05-07 23:12 40.44844 -100.96631 39886 ft 461 kts 261°
2026-05-07 23:12 40.43724 -101.04923 39888 ft 461 kts 261°
2026-05-07 23:13 40.42600 -101.13172 39891 ft 461 kts 261°
2026-05-07 23:13 40.41467 -101.21457 39897 ft 461 kts 261°
2026-05-07 23:14 40.40327 -101.29757 39903 ft 462 kts 261°
2026-05-07 23:14 40.39181 -101.38050 39902 ft 462 kts 261°
2026-05-07 23:15 40.38033 -101.46345 39901 ft 462 kts 261°
2026-05-07 23:15 40.36879 -101.54635 39898 ft 462 kts 261°
2026-05-07 23:16 40.35716 -101.62943 39904 ft 463 kts 261°
2026-05-07 23:16 40.34554 -101.71187 39907 ft 463 kts 261°
2026-05-07 23:17 40.33379 -101.79480 39897 ft 463 kts 261°
2026-05-07 23:17 40.32195 -101.87788 39900 ft 464 kts 261°
2026-05-07 23:18 40.31004 -101.96105 39894 ft 464 kts 261°
2026-05-07 23:18 40.29805 -102.04422 39898 ft 464 kts 261°
2026-05-07 23:19 40.28611 -102.12674 39898 ft 464 kts 261°
2026-05-07 23:19 40.27403 -102.20984 39892 ft 465 kts 261°
2026-05-07 23:20 40.26187 -102.29300 39896 ft 465 kts 261°
2026-05-07 23:20 40.24963 -102.37621 39897 ft 465 kts 261°
2026-05-07 23:21 40.23734 -102.45936 39901 ft 465 kts 261°
2026-05-07 23:21 40.22499 -102.54249 39899 ft 465 kts 261°
2026-05-07 23:22 40.21264 -102.62520 39905 ft 466 kts 261°
2026-05-07 23:22 40.20017 -102.70828 39899 ft 466 kts 261°
2026-05-07 23:23 40.18762 -102.79143 39904 ft 466 kts 261°
2026-05-07 23:23 40.17499 -102.87471 39924 ft 466 kts 261°
2026-05-07 23:24 40.16230 -102.95795 39934 ft 467 kts 261°
2026-05-07 23:24 40.14954 -103.04124 39948 ft 467 kts 261°
2026-05-07 23:25 40.13672 -103.12452 39960 ft 467 kts 261°
2026-05-07 23:25 40.12382 -103.20784 39957 ft 467 kts 261°
2026-05-07 23:26 40.11088 -103.29106 39961 ft 467 kts 261°
2026-05-07 23:26 40.09794 -103.37384 39950 ft 468 kts 261°
2026-05-07 23:27 40.07830 -103.49870 39928 ft 468 kts 261°
2026-05-07 23:27 40.06515 -103.58180 39909 ft 468 kts 261°
2026-05-07 23:28 40.05193 -103.66492 39901 ft 467 kts 261°
2026-05-07 23:28 40.03863 -103.74815 39898 ft 467 kts 261°
2026-05-07 23:29 40.02538 -103.83066 39896 ft 467 kts 261°
2026-05-07 23:29 40.01198 -103.91371 39887 ft 467 kts 261°
2026-05-07 23:30 39.99852 -103.99677 39887 ft 467 kts 261°
2026-05-07 23:30 39.98500 -104.07979 39883 ft 468 kts 261°
2026-05-07 23:31 39.97150 -104.16220 39882 ft 468 kts 261°
2026-05-07 23:31 39.95787 -104.24511 39893 ft 468 kts 261°
2026-05-07 23:32 39.94415 -104.32815 39911 ft 468 kts 261°
2026-05-07 23:32 39.93038 -104.41112 39940 ft 468 kts 261°
2026-05-07 23:33 39.91655 -104.49405 39966 ft 468 kts 261°
2026-05-07 23:33 39.90267 -104.57688 39986 ft 468 kts 261°
2026-05-07 23:34 39.88868 -104.65924 39988 ft 469 kts 260°
2026-05-07 23:34 39.87332 -104.74186 39986 ft 469 kts 259°
2026-05-07 23:35 39.85740 -104.82419 39980 ft 469 kts 259°
2026-05-07 23:35 39.84151 -104.90671 39960 ft 469 kts 259°
2026-05-07 23:36 39.82571 -104.98865 39983 ft 463 kts 259°
2026-05-07 23:36 39.80999 -105.06942 40004 ft 459 kts 259°
2026-05-07 23:37 39.79461 -105.14911 40002 ft 457 kts 260°
2026-05-07 23:37 39.77922 -105.22923 40000 ft 456 kts 261°
2026-05-07 23:38 39.76401 -105.30924 39999 ft 455 kts 260°
2026-05-07 23:38 39.74847 -105.38901 40002 ft 455 kts 260°
2026-05-07 23:39 39.73280 -105.46879 40015 ft 455 kts 259°
2026-05-07 23:39 39.71711 -105.54874 40039 ft 457 kts 259°
2026-05-07 23:40 39.70137 -105.62888 40062 ft 458 kts 260°
2026-05-07 23:40 39.68576 -105.70870 40076 ft 460 kts 259°
2026-05-07 23:41 39.66992 -105.78938 40086 ft 462 kts 259°
2026-05-07 23:41 39.65374 -105.87008 40087 ft 461 kts 259°
2026-05-07 23:42 39.63755 -105.95076 40099 ft 462 kts 259°
2026-05-07 23:42 39.62146 -106.03102 40094 ft 462 kts 259°
2026-05-07 23:43 39.60520 -106.11184 40096 ft 463 kts 259°
2026-05-07 23:43 39.58887 -106.19273 40098 ft 463 kts 259°
2026-05-07 23:44 39.57248 -106.27354 40102 ft 464 kts 259°
2026-05-07 23:44 39.55602 -106.35442 40109 ft 464 kts 259°
2026-05-07 23:45 39.53951 -106.43523 40112 ft 464 kts 259°
2026-05-07 23:45 39.52299 -106.51594 40098 ft 463 kts 259°
2026-05-07 23:46 39.50649 -106.59613 40091 ft 465 kts 259°
2026-05-07 23:46 39.48974 -106.67703 40089 ft 465 kts 259°
2026-05-07 23:47 39.47294 -106.75798 40091 ft 465 kts 259°
2026-05-07 23:47 39.45895 -106.82517 40085 ft 465 kts 259°
2026-05-07 23:48 39.44207 -106.90603 40082 ft 465 kts 259°
2026-05-07 23:48 39.42517 -106.98676 40093 ft 466 kts 259°
2026-05-07 23:49 39.40815 -107.06764 40080 ft 466 kts 259°
2026-05-07 23:49 39.39105 -107.14854 40057 ft 466 kts 259°
2026-05-07 23:50 39.37000 -107.22827 40041 ft 472 kts 251°
2026-05-07 23:50 39.34256 -107.30564 39994 ft 474 kts 250°
2026-05-07 23:51 39.31388 -107.38197 40014 ft 475 kts 249°
2026-05-07 23:51 39.28484 -107.45869 40021 ft 475 kts 249°
2026-05-07 23:52 39.25587 -107.53539 40022 ft 476 kts 249°
2026-05-07 23:52 39.22692 -107.61220 40026 ft 476 kts 249°
2026-05-07 23:53 39.19795 -107.68905 40024 ft 476 kts 249°
2026-05-07 23:53 39.16890 -107.76589 40022 ft 477 kts 249°
2026-05-07 23:54 39.13998 -107.84212 40019 ft 477 kts 249°
2026-05-07 23:54 39.11077 -107.91888 40015 ft 478 kts 249°
2026-05-07 23:55 39.08156 -107.99543 40016 ft 478 kts 249°
2026-05-07 23:55 39.05202 -108.07224 40018 ft 479 kts 248°
2026-05-07 23:56 39.02232 -108.14894 40018 ft 479 kts 248°
2026-05-07 23:56 38.99265 -108.22579 40016 ft 480 kts 248°
2026-05-07 23:57 38.96323 -108.30224 40012 ft 480 kts 248°
2026-05-07 23:57 38.93347 -108.37924 40014 ft 481 kts 248°
2026-05-07 23:58 38.90363 -108.45622 40012 ft 482 kts 248°
2026-05-07 23:58 38.87375 -108.53324 40010 ft 482 kts 248°
2026-05-07 23:59 38.84405 -108.61050 40006 ft 483 kts 248°
2026-05-07 23:59 38.81437 -108.68772 39995 ft 483 kts 248°
2026-05-08 00:00 38.78462 -108.76486 39992 ft 483 kts 248°
2026-05-08 00:00 38.75494 -108.84157 39998 ft 483 kts 248°
2026-05-08 00:01 38.72497 -108.91870 39992 ft 484 kts 248°
2026-05-08 00:01 38.69502 -108.99573 39995 ft 485 kts 248°
2026-05-08 00:02 38.66484 -109.07321 39988 ft 485 kts 248°
2026-05-08 00:02 38.63462 -109.15049 39985 ft 486 kts 248°
2026-05-08 00:03 38.60425 -109.22776 39983 ft 486 kts 247°
2026-05-08 00:03 38.57387 -109.30497 39979 ft 486 kts 247°
2026-05-08 00:04 38.54340 -109.38226 39976 ft 487 kts 247°
2026-05-08 00:04 38.51285 -109.45958 39976 ft 488 kts 247°
2026-05-08 00:05 38.48226 -109.53679 39984 ft 488 kts 247°
2026-05-08 00:05 38.45168 -109.61379 39966 ft 489 kts 247°
2026-05-08 00:06 38.42093 -109.69127 39953 ft 489 kts 247°
2026-05-08 00:06 38.39009 -109.76879 39945 ft 490 kts 247°
2026-05-08 00:07 38.35906 -109.84622 39948 ft 491 kts 246°
2026-05-08 00:07 38.32788 -109.92369 39940 ft 491 kts 246°
2026-05-08 00:08 38.29670 -110.00113 39938 ft 491 kts 246°
2026-05-08 00:08 38.26541 -110.07853 39932 ft 492 kts 246°
2026-05-08 00:09 38.23383 -110.15529 39930 ft 492 kts 246°
2026-05-08 00:09 38.20180 -110.23236 39932 ft 493 kts 245°
2026-05-08 00:10 38.16959 -110.30930 39929 ft 494 kts 245°
2026-05-08 00:10 38.13731 -110.38637 39929 ft 494 kts 245°
2026-05-08 00:11 38.10533 -110.46311 39929 ft 494 kts 245°
2026-05-08 00:11 38.07299 -110.54020 39931 ft 494 kts 245°
2026-05-08 00:12 38.04057 -110.61715 39933 ft 495 kts 245°
2026-05-08 00:12 38.00803 -110.69418 39938 ft 495 kts 245°
2026-05-08 00:13 37.97548 -110.77109 39941 ft 495 kts 245°
2026-05-08 00:13 37.94285 -110.84805 39945 ft 496 kts 245°
2026-05-08 00:14 37.91035 -110.92451 39950 ft 496 kts 245°
2026-05-08 00:14 37.87756 -111.00144 39951 ft 496 kts 245°
2026-05-08 00:15 37.84472 -111.07834 39950 ft 497 kts 245°
2026-05-08 00:15 37.81176 -111.15534 39948 ft 497 kts 245°
2026-05-08 00:16 37.77872 -111.23232 39959 ft 498 kts 244°
2026-05-08 00:16 37.74565 -111.30917 39956 ft 498 kts 244°
2026-05-08 00:17 37.71249 -111.38606 39958 ft 499 kts 244°
2026-05-08 00:17 37.67920 -111.46306 39958 ft 499 kts 244°
2026-05-08 00:18 37.64589 -111.53995 39965 ft 499 kts 244°
2026-05-08 00:18 37.61244 -111.61695 39964 ft 500 kts 244°
2026-05-08 00:19 37.57895 -111.69387 39965 ft 501 kts 244°
2026-05-08 00:19 37.54555 -111.77038 39976 ft 501 kts 244°
2026-05-08 00:20 37.51188 -111.84725 39999 ft 501 kts 243°
2026-05-08 00:20 37.47288 -111.92036 40002 ft 504 kts 237°
2026-05-08 00:21 37.43160 -111.99164 40007 ft 504 kts 236°
2026-05-08 00:21 37.38981 -112.06286 39976 ft 504 kts 236°
2026-05-08 00:22 37.34813 -112.13393 39960 ft 504 kts 236°
2026-05-08 00:22 37.30633 -112.20486 39959 ft 504 kts 236°
2026-05-08 00:23 37.26469 -112.27512 39958 ft 505 kts 236°
2026-05-08 00:23 37.22280 -112.34597 39959 ft 506 kts 236°
2026-05-08 00:24 37.18090 -112.41691 39959 ft 506 kts 236°
2026-05-08 00:24 37.13890 -112.48793 39957 ft 507 kts 236°
2026-05-08 00:25 37.09677 -112.55900 39951 ft 508 kts 236°
2026-05-08 00:25 37.05450 -112.63017 39967 ft 509 kts 236°
2026-05-08 00:26 37.01221 -112.70136 39998 ft 509 kts 236°